Location: Babice
(50.3480°N, 22.9363°E)
Time: 12:49:07
(UTC+00:00)

Cosmos 2360 Rocket - Pass Details

Date: 14 July 2020
Orbit: 832 x 846 km, 71.0° (Epoch: 07 August)

Event Time Altitude Azimuth Distance (km) Brightness Sun altitude
Rises 01:32:51 0° 332° (NNW) 3,419 5.7 -7.9°
Reaches altitude 10° 01:35:32 10° 342° (NNW) 2,481 5.1 -7.7°
Maximum altitude 01:40:45 36° 48° (NE) 1,322 4.1 -7.1°
Drops below altitude 10° 01:45:57 10° 114° (ESE) 2,468 4.9 -6.5°
Sets 01:48:35 0° 123° (ESE) 3,399 5.5 -6.2°
